Weather History for KPWK - October, 2014

Change the Weather History Date:

Saturday, October 4, 2014

  Actual Average Record
Temperature  
Mean Temperature 43 °F 57 °F  
Max Temperature 48 °F 67 °F 87 °F (2005)
Min Temperature 37 °F 46 °F 36 °F (2004)
Degree Days  
Heating Degree Days 22 9  
Month to date heating degree days 34 35  
Since 1 July heating degree days 153 147  
Cooling Degree Days 0 1  
Month to date cooling degree days 4 4  
Year to date cooling degree days 780 782  
Moisture  
Dew Point 33 °F    
Average Humidity 69    
Maximum Humidity 86    
Minimum Humidity 49    
Precipitation  
Precipitation 0.05 in 0.10 in 0.64 in (2001)
Month to date precipitation 1.42 0.49  
Year to date precipitation 28.85 26.18  
Sea Level Pressure  
Sea Level Pressure 29.73 in    
Wind  
Wind Speed 10 mph (West)    
Max Wind Speed 20 mph    
Max Gust Speed 27 mph    
Visibility 10 miles    
Events Rain    
T = Trace of Precipitation, MM = Missing Value Source: NWS Daily Summary

Daily Weather History Graph

Daily Weather History Graph

Search for Another Location

Airport or City:

Trip Planner

Search our weather history database for the weather conditions in past years. The results will help you decide how hot, cold, wet, or windy it might be!

Date:

Astronomy

Oct. 04, 2014 Rise Set
Actual Time 6:51 AM CDT 6:28 PM CDT
Civil Twilight 6:23 AM CDT 6:55 PM CDT
Nautical Twilight 5:51 AM CDT 7:28 PM CDT
Astronomical Twilight 5:18 AM CDT 8:00 PM CDT
Moon 4:08 PM CDT (10/4) 2:15 AM CDT (10/4)
Length of Visible Light 12h 31m
Length of Day
11h 36m
Waxing Gibbous, 81% of the Moon is Illuminated
Oct 4
Waxing Gibbous
Oct 8
Full
Oct 15
Last Quarter
Oct 23
New
Oct 30
First Quarter

Hourly Weather History & Observations

Time (CDT) Temp. Windchill Dew Point Humidity Pressure Visibility Wind Dir Wind Speed Gust Speed Precip Events Conditions
12:52 AM 45.0 °F 38.9 °F 27.0 °F 49% 29.75 in 10.0 mi West 12.7 mph - N/A   Overcast
1:52 AM 45.0 °F 39.3 °F 27.0 °F 49% 29.74 in 10.0 mi West 11.5 mph 18.4 mph N/A   Overcast
2:52 AM 43.0 °F 37.2 °F 27.0 °F 53% 29.74 in 10.0 mi West 10.4 mph - N/A   Overcast
3:52 AM 42.1 °F 34.9 °F 27.0 °F 55% 29.73 in 10.0 mi West 13.8 mph - N/A   Mostly Cloudy
4:52 AM 41.0 °F 35.2 °F 27.0 °F 57% 29.73 in - West 9.2 mph - N/A   Clear
5:52 AM 39.9 °F 33.9 °F 27.0 °F 60% 29.72 in - WSW 9.2 mph - N/A   Overcast
6:52 AM 39.9 °F 32.5 °F 27.0 °F 60% 29.71 in - WSW 12.7 mph 19.6 mph N/A   Overcast
7:52 AM 37.9 °F 30.9 °F 32.0 °F 79% 29.71 in 10.0 mi WSW 10.4 mph - 0.00 in   Overcast
8:52 AM 39.0 °F 31.4 °F 32.0 °F 76% 29.70 in 10.0 mi WSW 12.7 mph 20.7 mph N/A   Overcast
9:16 AM 39.0 °F 31.8 °F 33.1 °F 79% 29.69 in 10.0 mi WSW 11.5 mph - N/A   Overcast
9:38 AM 39.0 °F 32.3 °F 33.1 °F 79% 29.69 in 10.0 mi West 10.4 mph - N/A   Overcast
9:52 AM 39.0 °F 33.4 °F 33.1 °F 79% 29.70 in 10.0 mi WSW 8.1 mph 18.4 mph N/A   Overcast
10:50 AM 41.0 °F 34.3 °F 33.8 °F 76% 29.69 in 10.0 mi WSW 11.5 mph - N/A   Overcast
10:52 AM 41.0 °F 35.2 °F 34.0 °F 76% 29.70 in 10.0 mi West 9.2 mph - N/A   Overcast
11:52 AM 43.0 °F 36.0 °F 35.1 °F 74% 29.70 in 10.0 mi West 13.8 mph 19.6 mph N/A   Overcast
12:52 PM 45.0 °F 39.3 °F 39.0 °F 80% 29.71 in 10.0 mi West 11.5 mph 20.7 mph 0.01 in Rain Light Rain
1:52 PM 45.0 °F 39.7 °F 41.0 °F 86% 29.69 in 9.0 mi West 10.4 mph - 0.01 in Rain Light Rain
2:00 PM 45.0 °F 38.5 °F 39.9 °F 82% 29.71 in 10.0 mi West 13.8 mph 21.9 mph 0.00 in Rain Light Rain
2:52 PM 45.0 °F 38.9 °F 39.9 °F 82% 29.74 in 10.0 mi West 12.7 mph 27.6 mph 0.03 in Rain Light Rain
2:59 PM 46.0 °F 40.2 °F 41.0 °F 83% 29.73 in 10.0 mi West 12.7 mph 24.2 mph 0.00 in Rain Light Rain
3:52 PM 46.9 °F - 39.9 °F 77% 29.74 in 10.0 mi West 9.2 mph - 0.00 in   Overcast
4:48 PM 46.4 °F 40.7 °F 37.4 °F 71% 29.75 in 10.0 mi West 12.7 mph 20.7 mph N/A   Overcast
4:52 PM 46.9 °F - 37.0 °F 68% 29.76 in 10.0 mi WNW 11.5 mph 20.7 mph N/A   Overcast
5:52 PM 48.0 °F - 35.1 °F 61% 29.76 in 10.0 mi West 12.7 mph - N/A   Overcast
6:52 PM 48.0 °F - 34.0 °F 58% 29.77 in 10.0 mi West 9.2 mph - N/A   Overcast
7:52 PM 46.9 °F - 33.1 °F 59% 29.77 in 10.0 mi WSW 9.2 mph - N/A   Mostly Cloudy
8:52 PM 46.9 °F - 33.1 °F 59% 29.76 in 10.0 mi WSW 8.1 mph - N/A   Mostly Cloudy
9:52 PM 46.0 °F 43.9 °F 33.1 °F 61% 29.79 in 10.0 mi WSW 4.6 mph - N/A   Partly Cloudy
10:52 PM 43.0 °F 39.5 °F 33.1 °F 68% 29.78 in 10.0 mi SW 5.8 mph - N/A   Clear
11:52 PM 42.1 °F 38.4 °F 33.1 °F 70% 29.77 in 10.0 mi SW 5.8 mph - N/A   Clear